Flag for United Kingdom Weather past 2 weeks in Huddersfield, England, United Kingdom

Now
52 °F

Scattered clouds.


Feels Like: 46 °F
Forecast: 42 / 53 °F
Wind: 18 mph from West

Location: Leeds And Bradford

Current Time: May 28, 2015 at 2:32:16 PM

Latest Report: May 28, 2015 at 1:50 PM


Visibility: N/A

Pressure: 29.86 "Hg

Humidity: 62%

Dew point: 39 °F

Location of HuddersfieldLocation

Historic Weather in Huddersfield — Graph

°F

Huddersfield temperature yesterday

Maximum temperature yesterday: 55 °F (at 2:20 PM)
Minimum temperature yesterday: 41 °F (at 2:20 AM)
Average temperature yesterday: 49 °F

Past Weeks' High & Low Weather Summary

 TemperatureHumidityPressure
High61 °F (May 22, 1:20 PM)100% (May 16, 2:20 AM)30.30 "Hg (May 16, 2:20 AM)
Low39 °F (May 15, 5:20 AM)48% (May 15, 2:20 PM)29.39 "Hg (May 19, 3:20 AM)
Average49 °F78%30.03 "Hg
* Reported May 13 1:20 PM — May 28 1:20 PM, Huddersfield, Weather by CustomWeather, © 2015

Note: Actual official high and low records may vary slightly from our data, if they occured in-between our weather recording intervals... More about our weather records

Advertising

Huddersfield weather history for previous 24 hours

 ConditionsComfort  
Time TempWeatherWind HumidityBarometerVisibility
1:20 PM
Thu, May 28
50 °FSprinkles. Scattered clouds.18 mph67%29.86 "HgN/A
12:50 PM52 °FSprinkles. Scattered clouds.22 mph62%29.86 "HgN/A
12:20 PM52 °FScattered clouds.18 mph62%29.86 "HgN/A
11:50 AM52 °FScattered clouds.21 mph62%29.86 "HgN/A
11:20 AM48 °FSprinkles. Scattered clouds.18 mph71%29.86 "HgN/A
10:50 AM50 °FScattered clouds.20 mph67%29.86 "HgN/A
10:20 AM48 °FSprinkles. Scattered clouds.20 mph71%29.86 "HgN/A
9:50 AM50 °FScattered clouds.16 mph67%29.86 "HgN/A
9:20 AM48 °FScattered clouds.20 mph66%29.83 "HgN/A
8:50 AM46 °FScattered clouds.13 mph71%29.86 "HgN/A
8:20 AM46 °FScattered clouds.13 mph76%29.83 "HgN/A
7:50 AM46 °FScattered clouds.16 mph76%29.83 "HgN/A
7:20 AM46 °FScattered clouds.20 mph76%29.83 "HgN/A
6:50 AM45 °FScattered clouds.17 mph81%29.80 "HgN/A
6:20 AM45 °FScattered clouds.18 mph87%29.80 "HgN/A
5:50 AM45 °FScattered clouds.22 mph87%29.77 "HgN/A
5:20 AM45 °FPassing clouds.18 mph87%29.77 "HgN/A
4:20 AM45 °FPassing clouds.21 mph87%29.77 "HgN/A
3:50 AM45 °FPassing clouds.18 mph93%29.77 "HgN/A
3:20 AM46 °FPassing clouds.18 mph87%29.77 "HgN/A
2:50 AM46 °FPassing clouds.18 mph87%29.77 "HgN/A
2:20 AM46 °FPassing clouds.20 mph87%29.77 "HgN/A
1:50 AM46 °FPassing clouds.18 mph87%29.77 "HgN/A
1:20 AM48 °FPassing clouds.21 mph82%29.80 "HgN/A
12:50 AM48 °FPassing clouds.22 mph87%29.80 "HgN/A
12:20 AM50 °FPassing clouds.21 mph88%29.80 "HgN/A
11:50 PM
Wed, May 27
48 °FSprinkles. Passing clouds.17 mph94%29.80 "HgN/A
11:20 PM48 °FSprinkles. Passing clouds.15 mph94%29.80 "HgN/A
10:50 PM48 °FLight rain. Passing clouds.17 mph87%29.80 "HgN/A
10:20 PM48 °FLight rain. Passing clouds.17 mph94%29.80 "HgN/A
9:50 PM48 °FLight rain. Partly sunny.17 mph94%29.83 "HgN/A
9:20 PM48 °FLight rain. Scattered clouds.15 mph87%29.83 "HgN/A
8:50 PM48 °FScattered clouds.18 mph87%29.83 "HgN/A
8:20 PM48 °FScattered clouds.16 mph87%29.86 "HgN/A
7:50 PM50 °FScattered clouds.14 mph82%29.86 "HgN/A
7:20 PM50 °FScattered clouds.12 mph88%29.89 "HgN/A
6:50 PM48 °FLight rain. Scattered clouds.14 mph87%29.92 "HgN/A
6:20 PM50 °FLight rain. Partly sunny.17 mph88%29.92 "HgN/A
5:50 PM50 °FLight rain. Partly sunny.15 mph88%29.95 "Hg5 mi
5:20 PM52 °FLight rain. Partly sunny.15 mph82%29.98 "Hg5 mi
4:50 PM55 °FLight rain. Partly sunny.7 mph72%29.98 "HgN/A
4:20 PM55 °FScattered clouds.7 mph72%29.98 "HgN/A
3:50 PM55 °FLight rain. Scattered clouds.9 mph67%30.01 "HgN/A
3:20 PM55 °FPassing clouds.8 mph63%30.04 "HgN/A
2:50 PM55 °FScattered clouds.10 mph59%30.07 "HgN/A
2:20 PM55 °FScattered clouds.12 mph63%30.07 "HgN/A
Weather by CustomWeather, © 2015

See weather overviewHow to use our weather pages